Flag for Finland Weather past 2 weeks in Joensuu, Finland

Now
48 °F

Clear.


Feels Like: 48 °F
Forecast: 45 / 63 °F
Wind: 1 mph from East

Location: Joensuu Airport

Current Time: May 31, 2015 at 2:14:09 AM

Latest Report: May 31, 2015 at 1:20 AM


Visibility: 10 mi

Pressure: 29.80 "Hg

Humidity: 71%

Dew point: 39 °F

Location of JoensuuLocation

Historic Weather in Joensuu — Graph

°F

Joensuu temperature yesterday

Maximum temperature yesterday: 64 °F (at 4:50 PM)
Minimum temperature yesterday: 41 °F (at 3:20 AM)
Average temperature yesterday: 55 °F

Past Weeks' High & Low Weather Summary

 TemperatureHumidityPressure
High66 °F (May 26, 3:50 PM)100% (May 16, 2:20 AM)30.04 "Hg (May 16, 2:20 AM)
Low30 °F (May 16, 5:20 AM)24% (May 30, 4:50 PM)29.50 "Hg (May 18, 4:50 PM)
Average50 °F72%29.78 "Hg
* Reported May 16 12:20 AM — May 31 12:20 AM, Joensuu, Weather by CustomWeather, © 2015

Note: Actual official high and low records may vary slightly from our data, if they occured in-between our weather recording intervals... More about our weather records

Advertising

Joensuu weather history for previous 24 hours

 ConditionsComfort  
Time TempWeatherWind HumidityBarometerVisibility
12:20 AM
Sun, May 31
52 °FClear.1 mph58%29.80 "Hg10 mi
11:50 PM
Sat, May 30
54 °FClear.6 mph51%29.80 "Hg10 mi
11:20 PM52 °FSunny.5 mph62%29.80 "Hg10 mi
10:50 PM50 °FSunny.No wind67%29.83 "Hg10 mi
10:20 PM54 °FSunny.No wind54%29.83 "Hg10 mi
9:50 PM57 °FSunny.No wind51%29.83 "Hg10 mi
9:20 PM59 °FSunny.2 mph39%29.83 "Hg10 mi
8:50 PM63 °FSunny.1 mph34%29.86 "Hg10 mi
8:20 PM64 °FSunny.No wind26%29.86 "Hg10 mi
7:50 PM64 °FSunny.3 mph26%29.86 "Hg10 mi
7:20 PM64 °FSunny.3 mph26%29.86 "Hg10 mi
6:50 PM64 °FPassing clouds.5 mph28%29.86 "HgN/A
6:20 PM64 °FPassing clouds.5 mph30%29.89 "HgN/A
5:50 PM64 °FSunny.6 mph28%29.89 "Hg10 mi
5:20 PM64 °FPassing clouds.7 mph28%29.89 "HgN/A
4:50 PM64 °FPassing clouds.5 mph24%29.89 "HgN/A
4:20 PM63 °FPassing clouds.6 mph27%29.89 "HgN/A
3:50 PM63 °FPassing clouds.5 mph32%29.89 "HgN/A
3:20 PM63 °FPassing clouds.5 mph34%29.92 "HgN/A
2:50 PM63 °FPassing clouds.7 mph34%29.92 "HgN/A
2:20 PM61 °FPassing clouds.7 mph36%29.92 "HgN/A
1:50 PM61 °FPassing clouds.7 mph36%29.92 "HgN/A
1:20 PM61 °FPassing clouds.7 mph39%29.92 "HgN/A
12:50 PM59 °FSunny.7 mph48%29.92 "Hg10 mi
12:20 PM59 °FPassing clouds.8 mph45%29.92 "HgN/A
11:50 AM57 °FPassing clouds.8 mph51%29.95 "HgN/A
11:20 AM57 °FPassing clouds.9 mph51%29.95 "HgN/A
10:50 AM57 °FPassing clouds.8 mph55%29.92 "HgN/A
10:20 AM55 °FPassing clouds.7 mph63%29.92 "HgN/A
9:50 AM55 °FSunny.6 mph59%29.92 "Hg10 mi
9:20 AM55 °FPassing clouds.5 mph59%29.89 "HgN/A
8:50 AM55 °FSunny.3 mph59%29.89 "Hg10 mi
8:20 AM54 °FSunny.1 mph67%29.89 "Hg10 mi
7:50 AM52 °FSunny.3 mph72%29.89 "Hg10 mi
7:20 AM52 °FSunny.3 mph77%29.89 "Hg10 mi
6:50 AM50 °FSunny.3 mph82%29.89 "Hg10 mi
6:20 AM48 °FSunny.3 mph94%29.86 "Hg10 mi
5:50 AM48 °FSunny.2 mph94%29.86 "Hg10 mi
5:20 AM46 °FSunny.2 mph100%29.86 "Hg10 mi
4:50 AM43 °FSunny.3 mph100%29.86 "Hg10 mi
4:20 AM43 °FClear.1 mph100%29.86 "Hg6 mi
3:50 AM41 °FFog.2 mph100%29.86 "Hg1 mi
3:20 AM41 °FClear.3 mph100%29.83 "Hg4 mi
2:50 AM43 °FClear.2 mph100%29.83 "Hg10 mi
2:20 AM45 °FFog.1 mph100%29.83 "Hg2 mi
Weather by CustomWeather, © 2015

See weather overviewHow to use our weather pages